contact:dominique.lefevre@mio.osupytheas.fr, maurice.libes@osupytheas.fr, didier.mallarino@osupytheas.fr
Project:EMSO http://www.emso-fr.org/EMSO-France
Depth: 2436.0 m
Title:EMSO Ligure Ouest : Data MII capteur AQUADOPP
Date,Latitude,Longitude,X_East,Y_North,Z_Up,Amplitude_X,Amplitude_Y,Amplitude_Z,Batterie,SoundSpeed,Heading,Pitch,Roll,Pressure,TIS,Speed,Direction
, degrees North, degrees East, m.s-1, m.s-1,m.s-1, 1, 1, 1, Volt, m.s-1, degree, degree, degree, dbar, degree_C, m.s-1, degree
2023-04-04T00:04:03,42.805,6.029,-0.038,0.0,0.004,104.0,103.0,101.0,13.3,1505.2,332.9,-0.8,1.8,2471.139,13.28,0.038,270.0
2023-04-04T00:07:03,42.805,6.029,-0.03,-0.005,-0.012,105.0,104.0,101.0,13.3,1505.2,329.2,-0.8,1.8,2471.148,13.28,0.03,260.5
2023-04-04T00:10:03,42.805,6.029,-0.039,-0.009,-0.037,104.0,104.0,101.0,13.3,1505.2,338.8,-0.8,1.8,2471.114,13.29,0.04,257.0
2023-04-04T00:13:03,42.805,6.029,-0.044,-0.014,-0.013,103.0,103.0,103.0,13.4,1505.2,326.7,-0.8,1.8,2471.085,13.29,0.046,252.4
2023-04-04T00:16:03,42.805,6.029,-0.059,-0.003,-0.049,105.0,103.0,101.0,13.4,1505.2,326.5,-0.7,1.8,2471.107,13.29,0.059,267.1
2023-04-04T00:19:03,42.805,6.029,-0.041,0.012,-0.04,103.0,104.0,101.0,13.4,1505.2,339.1,-0.7,1.8,2471.122,13.29,0.042,286.3
2023-04-04T00:22:03,42.805,6.029,-0.052,0.001,-0.025,104.0,103.0,102.0,13.3,1505.2,318.9,-0.8,1.8,2471.076,13.29,0.052,271.1
2023-04-04T00:25:03,42.805,6.029,-0.03,0.006,-0.04,104.0,103.0,103.0,13.4,1505.2,336.6,-0.7,1.8,2471.124,13.29,0.03,281.3
2023-04-04T00:28:03,42.805,6.029,-0.028,-0.011,-0.015,104.0,103.0,103.0,13.3,1505.2,327.0,-0.8,1.8,2471.114,13.29,0.03,248.6
2023-04-04T00:31:03,42.805,6.029,-0.04,0.014,-0.024,104.0,105.0,102.0,13.3,1505.2,343.6,-0.8,1.8,2471.122,13.29,0.042,289.3
2023-04-04T00:34:03,42.805,6.029,-0.048,-0.014,-0.031,104.0,103.0,102.0,13.4,1505.2,325.7,-0.8,1.8,2471.076,13.29,0.05,253.7
2023-04-04T00:37:03,42.805,6.029,-0.056,0.007,-0.034,105.0,104.0,101.0,13.4,1505.2,341.5,-0.7,1.8,2471.137,13.29,0.056,277.1
2023-04-04T00:40:03,42.805,6.029,-0.028,0.026,-0.036,103.0,104.0,103.0,13.4,1505.2,325.1,-0.8,1.8,2471.107,13.29,0.038,312.9
2023-04-04T00:43:03,42.805,6.029,-0.028,-0.005,-0.059,104.0,105.0,101.0,13.3,1505.2,331.5,-0.8,1.8,2471.086,13.29,0.028,259.9
2023-04-04T00:46:03,42.805,6.029,-0.032,-0.003,-0.041,105.0,105.0,102.0,13.4,1505.2,339.4,-0.8,1.8,2471.082,13.29,0.032,264.6
2023-04-04T00:49:03,42.805,6.029,-0.051,-0.01,-0.045,104.0,103.0,102.0,13.4,1505.2,324.3,-0.8,1.9,2471.104,13.29,0.051,258.9
2023-04-04T00:52:03,42.805,6.029,-0.03,-0.015,-0.002,105.0,104.0,102.0,13.3,1505.2,324.7,-0.8,1.8,2471.089,13.29,0.033,243.4
2023-04-04T00:55:03,42.805,6.029,-0.044,-0.002,-0.043,104.0,103.0,103.0,13.4,1505.2,322.3,-0.7,1.8,2471.083,13.29,0.044,267.4
2023-04-04T00:58:03,42.805,6.029,-0.05,0.01,-0.01,104.0,103.0,103.0,13.3,1505.2,330.5,-0.8,1.8,2471.136,13.29,0.05,281.3
2023-04-04T01:04:03,42.805,6.029,-0.033,0.011,-0.011,104.0,105.0,102.0,13.4,1505.2,325.5,-0.8,1.8,2471.174,13.28,0.034,288.4
2023-04-04T01:07:03,42.805,6.029,-0.047,0.001,-0.027,104.0,106.0,101.0,13.4,1505.2,323.8,-0.8,1.8,2471.143,13.28,0.047,271.2
2023-04-04T01:10:03,42.805,6.029,-0.032,-0.003,-0.008,105.0,103.0,102.0,13.4,1505.2,335.8,-0.8,1.8,2471.125,13.29,0.032,264.6
2023-04-04T01:13:03,42.805,6.029,-0.026,-0.021,-0.028,105.0,103.0,103.0,13.4,1505.2,316.1,-0.8,1.8,2471.105,13.29,0.033,231.1
2023-04-04T01:16:03,42.805,6.029,-0.031,-0.004,-0.041,104.0,104.0,101.0,13.4,1505.2,330.2,-0.8,1.8,2471.13,13.29,0.031,262.7
2023-04-04T01:19:03,42.805,6.029,-0.048,0.006,0.0,103.0,104.0,103.0,13.4,1505.2,322.7,-0.8,1.8,2471.121,13.29,0.048,277.1
2023-04-04T01:22:03,42.805,6.029,-0.038,0.002,-0.014,104.0,104.0,101.0,13.4,1505.2,340.2,-0.7,1.9,2471.103,13.29,0.038,273.0
2023-04-04T01:25:03,42.805,6.029,-0.046,-0.02,-0.019,105.0,104.0,102.0,13.4,1505.2,324.0,-0.8,1.8,2471.128,13.29,0.05,246.5
2023-04-04T01:28:03,42.805,6.029,-0.036,-0.004,-0.031,105.0,103.0,102.0,13.3,1505.2,333.4,-0.8,1.8,2471.129,13.29,0.036,263.7
2023-04-04T01:31:03,42.805,6.029,-0.043,-0.007,-0.033,105.0,103.0,103.0,13.4,1505.2,335.8,-0.8,1.8,2471.097,13.29,0.043,260.8
2023-04-04T01:34:03,42.805,6.029,-0.018,-0.025,-0.023,105.0,105.0,101.0,13.4,1505.2,327.7,-0.8,1.8,2471.141,13.29,0.03,215.8
2023-04-04T01:37:03,42.805,6.029,-0.032,-0.003,-0.046,105.0,103.0,102.0,13.3,1505.2,339.1,-0.8,1.8,2471.108,13.29,0.032,264.6
2023-04-04T01:40:03,42.805,6.029,-0.029,0.005,-0.035,105.0,105.0,104.0,13.4,1505.2,342.5,-0.8,1.8,2471.106,13.29,0.029,279.8
2023-04-04T01:43:03,42.805,6.029,-0.039,-0.022,-0.003,105.0,105.0,104.0,13.4,1505.2,316.2,-0.8,1.8,2471.13,13.29,0.044,240.6
2023-04-04T01:46:03,42.805,6.029,-0.046,-0.023,-0.047,105.0,105.0,102.0,13.4,1505.2,327.0,-0.7,1.8,2471.119,13.29,0.051,243.4
2023-04-04T01:49:03,42.805,6.029,-0.064,0.006,-0.032,105.0,104.0,102.0,13.3,1505.2,340.5,-0.7,1.8,2471.106,13.29,0.064,275.4
2023-04-04T01:52:03,42.805,6.029,-0.05,-0.006,-0.019,104.0,104.0,102.0,13.4,1505.2,332.1,-0.7,1.8,2471.129,13.29,0.05,263.2
2023-04-04T01:55:03,42.805,6.029,-0.052,-0.001,-0.02,105.0,104.0,103.0,13.4,1505.2,324.0,-0.8,1.8,2471.147,13.29,0.052,268.9
2023-04-04T01:58:03,42.805,6.029,-0.051,-0.007,-0.028,106.0,106.0,103.0,13.4,1505.2,331.9,-0.8,1.8,2471.135,13.29,0.051,262.2
2023-04-04T02:04:03,42.805,6.029,-0.075,0.0,-0.053,105.0,105.0,103.0,13.4,1505.2,333.4,-0.8,1.8,2471.198,13.28,0.074,270.0
2023-04-04T02:07:03,42.805,6.029,-0.032,-0.016,-0.035,106.0,105.0,102.0,13.3,1505.2,319.6,-0.8,1.8,2471.175,13.28,0.035,243.4
2023-04-04T02:10:03,42.805,6.029,-0.04,-0.01,-0.04,105.0,105.0,103.0,13.4,1505.2,330.1,-0.8,1.9,2471.197,13.29,0.041,256.0
2023-04-04T02:13:03,42.805,6.029,-0.032,0.011,-0.018,106.0,105.0,103.0,13.4,1505.2,340.5,-0.8,1.8,2471.155,13.29,0.033,289.0
2023-04-04T02:16:03,42.805,6.029,-0.057,-0.019,-0.046,106.0,103.0,104.0,13.4,1505.2,321.6,-0.8,1.8,2471.168,13.29,0.06,251.6
2023-04-04T02:19:03,42.805,6.029,-0.035,-0.009,-0.031,105.0,104.0,104.0,13.3,1505.2,336.9,-0.8,1.8,2471.135,13.29,0.036,255.6
2023-04-04T02:22:03,42.805,6.029,-0.015,-0.015,-0.039,105.0,106.0,103.0,13.4,1505.2,326.3,-0.8,1.8,2471.142,13.29,0.021,225.0
2023-04-04T02:25:03,42.805,6.029,-0.042,-0.002,-0.026,106.0,104.0,102.0,13.4,1505.2,327.5,-0.7,1.8,2471.168,13.29,0.042,267.3
2023-04-04T02:28:03,42.805,6.029,-0.05,0.006,-0.009,103.0,105.0,102.0,13.3,1505.2,344.2,-0.8,1.8,2471.154,13.29,0.05,276.8
2023-04-04T02:31:03,42.805,6.029,-0.031,-0.003,-0.027,105.0,103.0,102.0,13.4,1505.2,321.2,-0.8,1.8,2471.148,13.29,0.031,264.5
2023-04-04T02:34:03,42.805,6.029,-0.064,-0.006,-0.046,105.0,102.0,102.0,13.4,1505.2,325.2,-0.8,1.8,2471.132,13.29,0.064,264.6
2023-04-04T02:37:03,42.805,6.029,-0.067,-0.003,-0.035,105.0,105.0,101.0,13.4,1505.2,343.1,-0.8,1.9,2471.141,13.29,0.067,267.4
2023-04-04T02:40:03,42.805,6.029,-0.052,-0.011,-0.037,107.0,104.0,102.0,13.4,1505.2,328.3,-0.8,1.8,2471.16,13.29,0.053,258.1
2023-04-04T02:43:03,42.805,6.029,-0.064,-0.022,-0.001,104.0,104.0,102.0,13.3,1505.2,318.6,-0.7,1.8,2471.202,13.29,0.067,251.0
2023-04-04T02:46:03,42.805,6.029,-0.042,-0.014,0.006,105.0,104.0,103.0,13.4,1505.2,331.4,-0.8,1.8,2471.146,13.29,0.044,251.6
2023-04-04T02:49:03,42.805,6.029,-0.052,-0.019,-0.023,105.0,105.0,103.0,13.4,1505.2,331.0,-0.7,1.8,2471.142,13.29,0.055,249.9
2023-04-04T02:52:03,42.805,6.029,-0.055,0.007,-0.016,105.0,105.0,103.0,13.4,1505.2,339.8,-0.8,1.8,2471.19,13.29,0.055,277.3
2023-04-04T02:55:03,42.805,6.029,-0.059,-0.028,-0.055,104.0,106.0,102.0,13.3,1505.2,326.5,-0.7,1.8,2471.209,13.29,0.065,244.6
2023-04-04T02:58:03,42.805,6.029,-0.056,-0.006,-0.025,105.0,104.0,102.0,13.4,1505.2,332.9,-0.7,1.8,2471.215,13.29,0.056,263.9
2023-04-04T03:04:03,42.805,6.029,-0.045,-0.023,-0.037,106.0,104.0,103.0,13.3,1505.2,322.4,-0.8,1.8,2471.232,13.28,0.05,242.9
2023-04-04T03:07:03,42.805,6.029,-0.055,0.006,-0.044,105.0,104.0,102.0,13.4,1505.2,326.7,-0.8,1.8,2471.248,13.28,0.055,276.2
2023-04-04T03:10:03,42.805,6.029,-0.026,-0.025,-0.024,105.0,104.0,103.0,13.4,1505.2,324.6,-0.8,1.8,2471.243,13.28,0.036,226.1
2023-04-04T03:13:03,42.805,6.029,-0.042,0.008,-0.04,105.0,105.0,103.0,13.4,1505.2,335.0,-0.8,1.8,2471.24,13.29,0.042,280.8
2023-04-04T03:16:03,42.805,6.029,-0.042,-0.015,-0.025,106.0,103.0,103.0,13.4,1505.2,323.7,-0.8,1.8,2471.231,13.29,0.044,250.4
2023-04-04T03:19:03,42.805,6.029,-0.035,0.001,0.002,106.0,105.0,102.0,13.4,1505.2,332.9,-0.8,1.8,2471.203,13.29,0.035,271.6
2023-04-04T03:22:03,42.805,6.029,-0.052,-0.02,-0.007,105.0,105.0,103.0,13.4,1505.2,341.2,-0.8,1.8,2471.223,13.29,0.055,249.0
2023-04-04T03:25:03,42.805,6.029,-0.011,0.013,-0.019,106.0,104.0,103.0,13.4,1505.2,331.8,-0.7,1.8,2471.204,13.29,0.017,319.8
2023-04-04T03:28:03,42.805,6.029,-0.032,-0.008,-0.035,106.0,105.0,103.0,13.4,1505.2,322.9,-0.8,1.8,2471.238,13.29,0.032,256.0
2023-04-04T03:31:03,42.805,6.029,-0.047,0.001,-0.036,106.0,102.0,104.0,13.4,1505.2,342.2,-0.8,1.8,2471.219,13.29,0.047,271.2
2023-04-04T03:34:03,42.805,6.029,-0.053,-0.013,-0.036,105.0,104.0,103.0,13.4,1505.2,327.4,-0.7,1.8,2471.24,13.29,0.054,256.2
2023-04-04T03:37:03,42.805,6.029,-0.03,-0.016,0.021,106.0,106.0,102.0,13.4,1505.2,333.4,-0.8,1.8,2471.19,13.29,0.034,241.9
2023-04-04T03:40:03,42.805,6.029,-0.031,-0.016,-0.038,105.0,104.0,103.0,13.4,1505.2,326.3,-0.8,1.8,2471.218,13.29,0.034,242.7
2023-04-04T03:43:03,42.805,6.029,-0.053,-0.016,-0.069,105.0,104.0,104.0,13.3,1505.2,334.8,-0.7,1.8,2471.223,13.29,0.055,253.2
2023-04-04T03:46:03,42.805,6.029,-0.057,-0.003,-0.054,105.0,104.0,102.0,13.4,1505.2,332.6,-0.8,1.8,2471.252,13.29,0.057,267.0
2023-04-04T03:49:03,42.805,6.029,-0.029,-0.014,-0.032,104.0,103.0,103.0,13.3,1505.2,332.6,-0.8,1.8,2471.238,13.29,0.032,244.2
2023-04-04T03:52:03,42.805,6.029,-0.075,-0.015,-0.039,104.0,104.0,103.0,13.4,1505.2,327.9,-0.8,1.8,2471.247,13.29,0.076,258.7
2023-04-04T03:55:03,42.805,6.029,-0.047,-0.005,-0.023,105.0,103.0,103.0,13.3,1505.2,336.8,-0.8,1.8,2471.229,13.29,0.047,263.9
2023-04-04T03:58:03,42.805,6.029,-0.026,-0.004,-0.035,105.0,104.0,103.0,13.4,1505.2,321.1,-0.8,1.8,2471.255,13.29,0.026,261.3
2023-04-04T04:04:03,42.805,6.029,-0.051,-0.013,-0.033,104.0,104.0,103.0,13.4,1505.2,321.6,-0.8,1.8,2471.311,13.28,0.052,255.7
2023-04-04T04:07:03,42.805,6.029,-0.03,-0.018,-0.05,108.0,105.0,103.0,13.4,1505.2,327.4,-0.7,1.8,2471.285,13.28,0.034,239.0
2023-04-04T04:10:03,42.805,6.029,-0.056,-0.004,-0.042,105.0,105.0,103.0,13.4,1505.2,333.4,-0.8,1.8,2471.288,13.29,0.056,265.9
2023-04-04T04:13:03,42.805,6.029,-0.035,-0.016,-0.026,104.0,105.0,103.0,13.4,1505.2,324.3,-0.7,1.8,2471.296,13.29,0.038,245.4
2023-04-04T04:16:03,42.805,6.029,-0.043,-0.03,-0.037,105.0,105.0,102.0,13.4,1505.2,336.2,-0.7,1.8,2471.294,13.29,0.052,235.1
2023-04-04T04:19:03,42.805,6.029,-0.079,-0.025,-0.016,105.0,104.0,102.0,13.4,1505.2,326.3,-0.7,1.8,2471.265,13.29,0.082,252.4
2023-04-04T04:22:03,42.805,6.029,-0.055,-0.026,-0.021,105.0,104.0,103.0,13.3,1505.2,327.4,-0.8,1.8,2471.273,13.29,0.06,244.7
2023-04-04T04:25:03,42.805,6.029,-0.069,0.002,-0.052,105.0,104.0,102.0,13.4,1505.2,330.4,-0.8,1.8,2471.298,13.29,0.069,271.7
2023-04-04T04:28:03,42.805,6.029,-0.029,-0.016,-0.002,106.0,104.0,102.0,13.4,1505.2,326.0,-0.8,1.8,2471.303,13.29,0.033,241.1
2023-04-04T04:31:03,42.805,6.029,-0.027,-0.039,-0.057,105.0,103.0,104.0,13.3,1505.2,330.6,-0.8,1.8,2471.293,13.29,0.047,214.7
2023-04-04T04:34:03,42.805,6.029,-0.069,-0.028,0.006,105.0,104.0,102.0,13.3,1505.2,331.3,-0.7,1.8,2471.258,13.29,0.074,247.9
2023-04-04T04:37:03,42.805,6.029,-0.039,-0.032,-0.016,105.0,104.0,103.0,13.4,1505.2,325.0,-0.8,1.8,2471.302,13.29,0.05,230.6
2023-04-04T04:40:03,42.805,6.029,-0.067,-0.013,-0.024,105.0,104.0,103.0,13.4,1505.2,324.3,-0.8,1.8,2471.274,13.29,0.068,259.0
2023-04-04T04:43:03,42.805,6.029,-0.055,0.0,-0.002,105.0,105.0,103.0,13.4,1505.2,321.1,-0.8,1.8,2471.3,13.29,0.055,270.0
2023-04-04T04:46:03,42.805,6.029,-0.052,-0.015,-0.044,105.0,105.0,103.0,13.3,1505.2,330.2,-0.8,1.8,2471.31,13.29,0.054,253.9
2023-04-04T04:49:03,42.805,6.029,-0.043,-0.031,-0.009,104.0,105.0,103.0,13.3,1505.2,319.1,-0.8,1.9,2471.308,13.29,0.053,234.2
2023-04-04T04:52:03,42.805,6.029,-0.051,-0.016,-0.012,105.0,106.0,103.0,13.4,1505.2,334.8,-0.8,1.8,2471.299,13.29,0.053,252.6
2023-04-04T04:55:03,42.805,6.029,-0.047,0.0,0.012,105.0,104.0,103.0,13.3,1505.2,334.8,-0.7,1.8,2471.321,13.29,0.047,270.0
2023-04-04T04:58:03,42.805,6.029,-0.018,-0.032,-0.025,106.0,105.0,104.0,13.3,1505.2,323.8,-0.8,1.8,2471.298,13.29,0.036,209.4
2023-04-04T05:04:03,42.805,6.029,-0.076,-0.002,-0.015,105.0,105.0,103.0,13.3,1505.2,342.5,-0.7,1.8,2471.37,13.28,0.076,268.5
2023-04-04T05:07:03,42.805,6.029,-0.063,-0.033,-0.037,105.0,106.0,103.0,13.4,1505.2,317.3,-0.8,1.8,2471.375,13.28,0.071,242.4
2023-04-04T05:10:03,42.805,6.029,-0.071,0.012,-0.012,106.0,105.0,103.0,13.3,1505.2,329.9,-0.8,1.8,2471.336,13.28,0.072,279.6
2023-04-04T05:13:03,42.805,6.029,-0.037,-0.013,-0.041,105.0,106.0,104.0,13.4,1505.2,325.0,-0.8,1.8,2471.325,13.29,0.039,250.6
2023-04-04T05:16:03,42.805,6.029,-0.043,-0.002,-0.004,104.0,106.0,104.0,13.3,1505.2,334.6,-0.8,1.8,2471.346,13.29,0.043,267.3
2023-04-04T05:19:03,42.805,6.029,-0.054,-0.028,-0.029,105.0,105.0,104.0,13.3,1505.2,321.3,-0.8,1.8,2471.336,13.29,0.06,242.6
2023-04-04T05:22:03,42.805,6.029,-0.055,-0.005,-0.034,105.0,104.0,102.0,13.4,1505.2,328.3,-0.8,1.8,2471.337,13.29,0.055,264.8
2023-04-04T05:25:03,42.805,6.029,-0.072,-0.003,-0.017,107.0,104.0,103.0,13.4,1505.2,343.9,-0.8,1.8,2471.321,13.29,0.072,267.6
2023-04-04T05:28:03,42.805,6.029,-0.04,-0.033,-0.044,106.0,104.0,103.0,13.4,1505.2,318.2,-0.7,1.9,2471.34,13.29,0.051,230.5
2023-04-04T05:31:03,42.805,6.029,-0.058,-0.015,-0.037,105.0,104.0,103.0,13.4,1505.2,333.4,-0.8,1.8,2471.307,13.29,0.059,255.5
2023-04-04T05:34:03,42.805,6.029,-0.056,-0.046,-0.036,104.0,104.0,103.0,13.4,1505.2,325.5,-0.8,1.8,2471.32,13.29,0.072,230.6
2023-04-04T05:37:03,42.805,6.029,-0.048,-0.019,-0.049,105.0,105.0,103.0,13.4,1505.2,327.4,-0.8,1.8,2471.302,13.29,0.051,248.4
2023-04-04T05:40:03,42.805,6.029,-0.066,-0.01,-0.039,105.0,105.0,103.0,13.4,1505.2,331.1,-0.7,1.8,2471.352,13.29,0.066,261.4
2023-04-04T05:43:03,42.805,6.029,-0.061,-0.037,-0.028,106.0,105.0,103.0,13.4,1505.2,332.4,-0.8,1.8,2471.372,13.29,0.071,238.8
2023-04-04T05:46:03,42.805,6.029,-0.056,-0.021,-0.021,105.0,105.0,102.0,13.3,1505.2,332.1,-0.8,1.8,2471.308,13.29,0.059,249.4
2023-04-04T05:49:03,42.805,6.029,-0.048,-0.022,-0.006,106.0,105.0,103.0,13.4,1505.2,328.8,-0.8,1.8,2471.322,13.29,0.052,245.4
2023-04-04T05:52:03,42.805,6.029,-0.052,-0.011,-0.023,108.0,104.0,102.0,13.3,1505.2,342.5,-0.7,1.8,2471.333,13.29,0.053,258.1
2023-04-04T05:55:03,42.805,6.029,-0.06,-0.023,-0.048,106.0,104.0,104.0,13.4,1505.2,321.3,-0.7,1.8,2471.358,13.29,0.064,249.0
2023-04-04T05:58:03,42.805,6.029,-0.05,-0.033,-0.027,106.0,105.0,103.0,13.4,1505.2,326.0,-0.7,1.8,2471.312,13.29,0.059,236.6
2023-04-04T06:04:03,42.805,6.029,-0.07,-0.024,-0.044,105.0,106.0,103.0,13.4,1505.2,332.0,-0.8,1.8,2471.375,13.28,0.073,251.1
2023-04-04T06:07:03,42.805,6.029,-0.075,-0.015,-0.015,106.0,105.0,103.0,13.4,1505.2,334.8,-0.8,1.8,2471.405,13.28,0.076,258.7
2023-04-04T06:10:03,42.805,6.029,-0.041,-0.009,-0.016,107.0,105.0,103.0,13.4,1505.2,321.9,-0.8,1.8,2471.351,13.28,0.041,257.6
2023-04-04T06:13:03,42.805,6.029,-0.045,-0.012,-0.015,108.0,105.0,104.0,13.4,1505.2,328.5,-0.8,1.8,2471.342,13.29,0.046,255.1
2023-04-04T06:16:03,42.805,6.029,-0.052,-0.005,-0.072,106.0,105.0,103.0,13.3,1505.2,340.9,-0.7,1.8,2471.35,13.29,0.052,264.5
2023-04-04T06:19:03,42.805,6.029,-0.052,-0.024,-0.027,105.0,106.0,103.0,13.4,1505.2,322.3,-0.8,1.8,2471.359,13.29,0.057,245.2
2023-04-04T06:22:03,42.805,6.029,-0.068,-0.029,-0.025,107.0,106.0,104.0,13.3,1505.2,321.3,-0.7,1.8,2471.346,13.29,0.073,246.9
2023-04-04T06:25:03,42.805,6.029,-0.045,-0.022,-0.021,106.0,106.0,103.0,13.3,1505.2,322.5,-0.8,1.8,2471.373,13.29,0.05,243.9
2023-04-04T06:28:03,42.805,6.029,-0.065,-0.011,-0.062,106.0,105.0,104.0,13.4,1505.2,331.6,-0.8,1.8,2471.341,13.29,0.065,260.4
2023-04-04T06:31:03,42.805,6.029,-0.056,0.002,-0.047,105.0,106.0,104.0,13.3,1505.2,335.4,-0.7,1.8,2471.352,13.29,0.056,272.0
2023-04-04T06:34:03,42.805,6.029,-0.049,-0.014,-0.042,106.0,107.0,102.0,13.4,1505.2,322.3,-0.8,1.9,2471.32,13.29,0.05,254.1
2023-04-04T06:37:03,42.805,6.029,-0.035,-0.013,-0.044,106.0,106.0,103.0,13.4,1505.2,334.8,-0.8,1.8,2471.344,13.29,0.037,249.6
2023-04-04T06:40:03,42.805,6.029,-0.068,-0.011,-0.029,106.0,105.0,105.0,13.4,1505.2,335.3,-0.8,1.8,2471.326,13.29,0.068,260.8
2023-04-04T06:43:03,42.805,6.029,-0.068,-0.029,-0.012,106.0,106.0,104.0,13.4,1505.2,327.0,-0.7,1.8,2471.397,13.29,0.073,246.9
2023-04-04T06:46:03,42.805,6.029,-0.08,-0.026,-0.019,107.0,105.0,102.0,13.3,1505.2,323.7,-0.8,1.8,2471.305,13.29,0.084,252.0
2023-04-04T06:49:03,42.805,6.029,-0.045,-0.014,-0.023,107.0,106.0,103.0,13.4,1505.2,331.9,-0.8,1.8,2471.395,13.29,0.047,252.7
2023-04-04T06:52:03,42.805,6.029,-0.066,0.0,-0.037,105.0,106.0,104.0,13.3,1505.2,337.3,-0.7,1.8,2471.344,13.29,0.065,270.0
2023-04-04T06:55:03,42.805,6.029,-0.052,-0.02,-0.042,106.0,105.0,104.0,13.4,1505.2,321.7,-0.8,1.8,2471.297,13.29,0.055,249.0
2023-04-04T06:58:03,42.805,6.029,-0.041,-0.015,0.004,106.0,103.0,104.0,13.4,1505.2,327.5,-0.8,1.8,2471.324,13.29,0.043,249.9
2023-04-04T07:04:03,42.805,6.029,-0.05,-0.005,-0.016,106.0,106.0,103.0,13.4,1505.2,327.2,-0.8,1.8,2471.43,13.28,0.05,264.3
2023-04-04T07:07:03,42.805,6.029,-0.064,-0.019,-0.017,107.0,105.0,104.0,13.4,1505.2,325.5,-0.8,1.8,2471.361,13.28,0.066,253.5
2023-04-04T07:10:03,42.805,6.029,-0.071,-0.031,-0.043,105.0,105.0,104.0,13.4,1505.2,325.2,-0.8,1.8,2471.369,13.28,0.077,246.4
2023-04-04T07:13:03,42.805,6.029,-0.029,0.002,0.002,106.0,105.0,104.0,13.4,1505.2,336.0,-0.8,1.8,2471.385,13.29,0.029,273.9
2023-04-04T07:16:03,42.805,6.029,-0.064,-0.003,-0.022,107.0,105.0,103.0,13.4,1505.2,330.2,-0.8,1.8,2471.38,13.29,0.064,267.3
2023-04-04T07:19:03,42.805,6.029,-0.056,-0.02,-0.041,106.0,105.0,103.0,13.4,1505.2,322.6,-0.8,1.8,2471.37,13.29,0.059,250.4
2023-04-04T07:22:03,42.805,6.029,-0.052,-0.019,-0.014,106.0,105.0,103.0,13.3,1505.2,331.3,-0.8,1.8,2471.372,13.29,0.055,249.9
2023-04-04T07:25:03,42.805,6.029,-0.053,-0.025,-0.008,106.0,107.0,103.0,13.3,1505.2,324.1,-0.8,1.9,2471.344,13.29,0.058,244.7
2023-04-04T07:28:03,42.805,6.029,-0.071,-0.017,-0.02,105.0,105.0,103.0,13.4,1505.2,340.2,-0.7,1.8,2471.357,13.29,0.073,256.5
2023-04-04T07:31:03,42.805,6.029,-0.062,-0.014,-0.015,106.0,106.0,103.0,13.4,1505.2,341.2,-0.8,1.8,2471.386,13.29,0.063,257.3
2023-04-04T07:34:03,42.805,6.029,-0.049,-0.051,-0.033,105.0,106.0,103.0,13.3,1505.2,316.1,-0.8,1.8,2471.315,13.29,0.07,223.9
2023-04-04T07:37:03,42.805,6.029,-0.083,-0.022,-0.033,105.0,105.0,103.0,13.3,1505.2,336.6,-0.7,1.8,2471.346,13.29,0.085,255.2
2023-04-04T07:40:03,42.805,6.029,-0.028,-0.032,0.004,107.0,105.0,103.0,13.4,1505.2,338.8,-0.8,1.8,2471.327,13.29,0.042,221.2
2023-04-04T07:43:03,42.805,6.029,-0.053,-0.013,-0.02,106.0,106.0,103.0,13.3,1505.2,341.5,-0.8,1.9,2471.337,13.29,0.054,256.2
2023-04-04T07:46:03,42.805,6.029,-0.048,-0.023,-0.004,106.0,105.0,104.0,13.4,1505.2,321.3,-0.7,1.8,2471.362,13.29,0.053,244.4
2023-04-04T07:49:03,42.805,6.029,-0.064,-0.029,-0.033,107.0,105.0,102.0,13.3,1505.2,316.1,-0.8,1.8,2471.313,13.29,0.07,245.6
2023-04-04T07:52:03,42.805,6.029,-0.063,-0.017,-0.032,105.0,105.0,104.0,13.4,1505.2,327.5,-0.8,1.8,2471.338,13.29,0.065,254.9
2023-04-04T07:55:03,42.805,6.029,-0.058,-0.041,-0.025,107.0,105.0,103.0,13.4,1505.2,323.8,-0.8,1.8,2471.327,13.29,0.071,234.7
2023-04-04T07:58:03,42.805,6.029,-0.056,-0.017,-0.019,105.0,105.0,103.0,13.4,1505.2,342.8,-0.7,1.8,2471.361,13.29,0.058,253.1
2023-04-04T08:04:03,42.805,6.029,-0.071,-0.019,-0.035,106.0,105.0,103.0,13.4,1505.2,329.4,-0.8,1.8,2471.366,13.28,0.073,255.0
2023-04-04T08:07:03,42.805,6.029,-0.036,-0.038,-0.004,106.0,105.0,104.0,13.4,1505.2,322.0,-0.8,1.8,2471.373,13.28,0.052,223.5
2023-04-04T08:10:03,42.805,6.029,-0.039,-0.021,-0.031,106.0,105.0,104.0,13.4,1505.2,325.8,-0.7,1.9,2471.358,13.28,0.044,241.7
2023-04-04T08:13:03,42.805,6.029,-0.074,-0.026,-0.054,106.0,106.0,103.0,13.4,1505.2,320.0,-0.8,1.8,2471.357,13.28,0.078,250.6
2023-04-04T08:16:03,42.805,6.029,-0.059,-0.031,-0.017,107.0,107.0,103.0,13.4,1505.2,321.4,-0.8,1.8,2471.344,13.29,0.066,242.3
2023-04-04T08:19:03,42.805,6.029,-0.046,-0.016,-0.028,107.0,106.0,103.0,13.4,1505.2,328.3,-0.7,1.8,2471.31,13.29,0.048,250.8
2023-04-04T08:22:03,42.805,6.029,-0.079,-0.014,-0.017,105.0,105.0,103.0,13.4,1505.2,335.7,-0.7,1.7,2471.282,13.29,0.08,260.0
2023-04-04T08:25:03,42.805,6.029,-0.049,-0.015,-0.005,107.0,106.0,103.0,13.3,1505.2,329.3,-0.8,1.8,2471.299,13.29,0.051,253.0
2023-04-04T08:28:03,42.805,6.029,-0.075,-0.014,-0.017,106.0,104.0,103.0,13.4,1505.2,340.8,-0.8,1.8,2471.363,13.29,0.076,259.4
2023-04-04T08:31:03,42.805,6.029,-0.071,-0.006,-0.003,106.0,105.0,103.0,13.3,1505.2,341.5,-0.7,1.8,2471.292,13.29,0.071,265.2
2023-04-04T08:34:03,42.805,6.029,-0.026,-0.014,-0.023,106.0,105.0,103.0,13.4,1505.2,330.3,-0.8,1.8,2471.29,13.29,0.029,241.7
2023-04-04T08:37:03,42.805,6.029,-0.09,-0.032,-0.013,106.0,105.0,102.0,13.4,1505.2,331.5,-0.7,1.8,2471.289,13.29,0.095,250.4
2023-04-04T08:40:03,42.805,6.029,-0.053,-0.027,-0.02,106.0,106.0,103.0,13.4,1505.2,326.3,-0.7,1.8,2471.346,13.29,0.059,243.0
2023-04-04T08:43:03,42.805,6.029,-0.08,0.003,-0.031,106.0,105.0,103.0,13.4,1505.2,343.2,-0.8,1.8,2471.294,13.29,0.08,272.1
2023-04-04T08:46:03,42.805,6.029,-0.07,-0.021,-0.025,107.0,104.0,103.0,13.4,1505.2,335.0,-0.7,1.8,2471.312,13.29,0.073,253.3
2023-04-04T08:49:03,42.805,6.029,-0.067,-0.022,-0.034,106.0,105.0,103.0,13.4,1505.2,331.4,-0.8,1.8,2471.273,13.29,0.07,251.8
2023-04-04T08:52:03,42.805,6.029,-0.091,-0.016,-0.015,105.0,105.0,104.0,13.4,1505.2,325.5,-0.8,1.8,2471.296,13.29,0.092,260.0
2023-04-04T08:55:03,42.805,6.029,-0.065,-0.004,-0.012,106.0,105.0,103.0,13.3,1505.2,337.0,-0.7,1.8,2471.287,13.29,0.065,266.5
2023-04-04T08:58:03,42.805,6.029,-0.061,-0.04,-0.042,106.0,105.0,103.0,13.4,1505.2,318.9,-0.8,1.8,2471.295,13.29,0.072,236.7
2023-04-04T09:04:03,42.805,6.029,-0.064,-0.031,-0.026,105.0,105.0,103.0,13.4,1505.2,333.4,-0.8,1.8,2471.352,13.28,0.071,244.2
2023-04-04T09:07:03,42.805,6.029,-0.065,-0.034,-0.029,106.0,105.0,104.0,13.4,1505.2,326.3,-0.8,1.8,2471.321,13.28,0.073,242.4
2023-04-04T09:10:03,42.805,6.029,-0.079,-0.01,0.0,105.0,105.0,104.0,13.4,1505.2,328.7,-0.7,1.8,2471.316,13.28,0.079,262.8
2023-04-04T09:13:03,42.805,6.029,-0.056,0.0,-0.002,105.0,105.0,102.0,13.3,1505.2,334.2,-0.8,1.9,2471.275,13.28,0.056,270.0
2023-04-04T09:16:03,42.805,6.029,-0.067,-0.031,-0.032,106.0,105.0,103.0,13.4,1505.2,322.1,-0.8,1.8,2471.314,13.29,0.073,245.2
2023-04-04T09:19:03,42.805,6.029,-0.072,-0.019,-0.045,106.0,104.0,103.0,13.4,1505.2,330.2,-0.8,1.8,2471.314,13.29,0.074,255.2
2023-04-04T09:22:03,42.805,6.029,-0.053,-0.045,-0.028,105.0,105.0,104.0,13.4,1505.2,323.3,-0.7,1.8,2471.287,13.29,0.069,229.7
2023-04-04T09:25:03,42.805,6.029,-0.069,-0.013,-0.025,106.0,105.0,102.0,13.4,1505.2,331.3,-0.8,1.8,2471.293,13.29,0.07,259.3
2023-04-04T09:28:03,42.805,6.029,-0.068,-0.017,-0.055,106.0,105.0,103.0,13.4,1505.2,326.5,-0.8,1.8,2471.282,13.29,0.07,256.0
2023-04-04T09:31:03,42.805,6.029,-0.062,-0.013,-0.029,106.0,103.0,104.0,13.4,1505.2,334.8,-0.7,1.8,2471.276,13.29,0.063,258.2
2023-04-04T09:34:03,42.805,6.029,-0.096,-0.001,-0.039,106.0,105.0,103.0,13.4,1505.2,330.9,-0.7,1.8,2471.258,13.29,0.096,269.4
2023-04-04T09:37:03,42.805,6.029,-0.074,-0.022,-0.02,104.0,105.0,102.0,13.4,1505.2,326.8,-0.8,1.8,2471.303,13.29,0.077,253.4
2023-04-04T09:40:03,42.805,6.029,-0.073,-0.025,-0.019,106.0,105.0,103.0,13.4,1505.2,324.6,-0.7,1.8,2471.282,13.29,0.077,251.1
2023-04-04T09:43:03,42.805,6.029,-0.055,0.0,-0.024,106.0,105.0,103.0,13.4,1505.2,327.6,-0.8,1.8,2471.274,13.29,0.055,270.0
2023-04-04T09:46:03,42.805,6.029,-0.079,-0.005,-0.007,105.0,105.0,103.0,13.3,1505.2,335.3,-0.8,1.8,2471.288,13.29,0.079,266.4
2023-04-04T09:49:03,42.805,6.029,-0.063,0.001,-0.007,106.0,105.0,103.0,13.4,1505.2,341.5,-0.8,1.8,2471.249,13.29,0.063,270.9